Tracking 19212 objects as of 17-Jul-2018
HD Live streaming from Space Station
objects crossing your sky now

APSTAR 1

Track APSTAR 1 now!
APSTAR 1 is classified as:


NORAD ID: 23185
Int'l Code: 1994-043A
Perigee: 36,025.2 km
Apogee: 36,069.6 km
Inclination: 10.3 °
Period: 1,449.1 minutes
Semi major axis: 42418 km
RCS: 25.1188 m2 (large)
Launch date: July 21, 1994
Source: People's Republic of China (PRC)
Launch site: Xichang Space Center, China (XSC)

24 C-band transponders.
aabbcc
Your satellite tracking list
Your tracking list is empty




NASA's NSSDC Master Catalog

Two Line Element Set (TLE):
1 23185U 94043A   18198.10498851 -.00000056  00000-0  00000+0 0  9993
2 23185  10.3486  37.3981 0005234 315.0395 243.2371  0.99373731 87698
Source of the keplerian elements: AFSPC